Weather in Katrineholm

Sweden     58°59′04″N   16°12′32″E
temp.,
°C
wind,
m/s
gust,
m/s
humid.,
%
clouds,
%
prec.,
mm/h
press.,
hPa
HPBL,
m
12 april, mon
mon1223:000ene41098100 5.0 1015520
02:00+1ene31098100 9.6 1012387
05:00+1nne2499100 1.6 1010185
08:00+2nne01100100 3.6 100987
11:00+5sw3892100 0.7 1011714
14:00+6wsw4773100 0.8 10131230
17:00+6sw5880100 0.2 10141026
20:00+3ssw3888100 0.2 1015294
13 april, tue
tue1323:00+2ssw31189100 0.0 1016433
02:000ssw311915 0.0 1016368
05:00−1ssw311925 0.0 1015400
08:00+1ssw4128765 0.0 1016707
11:00+5sw597396 0.2 10161441
14:00+4wsw587992 0.4 10181056
17:00+5w476755 0.1 10181351
20:00+1sw26885 0.1 1020136
14 april, wed
wed1423:00−1wsw27942 0.0 1021149
02:00−2wnw27935 0.0 1022166
05:00−2wnw27905 0.0 1023159
08:00+1nnw39690 0.0 1024437
11:00+5nnw475039 0.0 10251680
14:00+6n4645100 0.0 10251869
17:00+7n364896 0.1 10261757
20:00+2nnw11746 0.1 102710
15 april, thu
thu1523:000nnw11845 0.0 102910
02:000nnw229162 0.0 102935
05:00−1nnw249212 0.0 103069
08:00+3nne367666 0.0 1031290
11:00+7nne355664 0.0 10311265
14:00+9nne354756 0.0 10311684
17:00+9nne454774 0.0 10311688
20:00+4nne27725 0.0 1032126
16 april, fri
fri1623:00+2nne28855 0.0 1032158
02:00+1nne29945 0.0 1033221
05:000n29954 0.0 1033204
08:00+4nne39800 0.0 1033398
11:00+9ne46500 0.0 10331010
14:00+11ne47435 0.0 10331577
17:00+12ne574139 0.0 10331618
20:00+7ne495883 0.0 1034364